Погода в Лаукуве

Погода в Лаукуве : погода сейчас, прогноз погоды и архив. Всё, что Вы хотите узнать о погоде в Лаукуве!

Поиск расширенной информации на нашем сайте:

Другие новости

Новости СМИ2

Главная страница сайта

Новости сайта

03.07.2017

Напоминаем, что на нашем специализированном сайте Метеоцентр.Азия вы можете получить высокодетализированные автоматические прогнозы погоды по пунктам России, СНГ и мира в авиационном формате (включающие направление и скорость ветра, видимость, явления погоды, количество и форму облачности, нижнюю и верхнюю границу облачности).

Рекомендуем: монтаж система вентиляции торгового центра

Погода в Лаукуве - сегодня

Время (UTC), дата Ветер
(°,м/с) 
Видим.   Явления Облачность Т
(°С)
Тd
(°С)
f(%) Тe
(°С)
Pmin
(гПа)
dP
(гПа)
Po
(мм)
O2
(г/м3)
Тmin Tmax R s Состояние
почвы
21 23.07.17 060 (СВ) 4-5{05}  20000 м    5/0 средняя, верхняя 
[Ac trans|Ci sp]
+15.6 +12 79 +20  1013.4  -1  745  281           
00 24.07.17 050 (СВ) 4-5{16}  20000 м    8/0 средняя, верхняя 
[Ac trans|Ci sp]
+15.5 +12.2 81 +19  1011.6  -1.7  744  281           
03 24.07.17 060 (СВ) 3-4{06}  15000 м  слаб. дождь  10/0 средняя 
[As op]
+14.8 +13 89 +21  1010.6  -1.1  743  281           
06 24.07.17 090 (В) 5-8{08}  17000 м  слаб. дождь  10/0 средняя 
[Ac As]
+15.5 +14.6 94 +23  1009.3  -1.2  742  279  +14.4      влажная 
09 24.07.17 080 (В) 6-7{08}  20000 м  {дождь}  10/10 270 м кучево-дожд. 
[Cb cap]
+17.1 +15.1 88 +26  1009.1  -0.1  742  277           
12 24.07.17 100 (В) 5-7{10}  20000 м  {дождь}  10/10 540 м кучево-дожд. 
[Cb cap]
+18.4 +15.7 84 +29  1008.9  -0.1  742  277      0.1     
15 24.07.17 080 (В) 5-6{08}  20000 м    8/8 1140 м верхняя 
[Cu Sc|Ci fib]
+18.7 +15.1 80 +28  1009  0.2  742  276           
18 24.07.17 070 (В) 4-6{08}  20000 м    6/3 1000 м средняя, верхняя 
[Sc|Ac trans|Ci sp]
+17.9 +14.4 80 +26  1008.9  -0.3  742  277    +19.5  0.1     
21 24.07.17 050 (СВ) 1-2{06}  20000 м    5/0 средняя, верхняя 
[Ac trans|Ci sp]
+13.8 +12.3 91 +20  1008.9  -0.2  742  281           
00 25.07.17 050 (СВ) 3-4{05}  19000 м    4/0 средняя, верхняя 
[Ac trans|Ci sp]
+13.4 +12.5 94 +18  1008.2  -0.7  741  282           
03 25.07.17 050 (СВ) 4-5{05}  19000 м    8/4 1000 м средняя, верхняя 
[Sc|Ac trans|Ci sp]
+13.8 +12.9 94 +19  1007.1  -1.1  741  281           
06 25.07.17 070 (В) 7-9{10}  20000 м    9/0 средняя, верхняя 
[Ac und|Cs]
+16.2 +13.7 85 +23  1006.5  -0.4  740  278  +12.1        влажная 
09 25.07.17 070 (В) 7-9{10}  20000 м    9/3 1000 м средняя, верхняя 
[Cu hum|Ac trans|Ci sp]
+20.6 +14.2 67 +28  1005.5  -0.7  740  274           
12 25.07.17 080 (В) 7-10{13}  20000 м    9/4 1000 м верхняя 
[Cu med, cong|Ci sp]
+22 +15 64 +31  1004.6  -0.8  739  272           
15 25.07.17 080 (В) 7-10{12}  20000 м    9/3 1000 м средняя, верхняя 
[Cu med, cong|Ac trans|Ci sp]
+22.2 +14.2 60 +30  1003.3  -1.2  738  271           
18 25.07.17 070 (В) 5-8{12}  20000 м    9/3 1000 м средняя, верхняя 
[Cu med, cong|Ac und|Ci sp]
+20.9 +14.4 66 +29  1003  -0.4  738  273    +22.6       
21 25.07.17 040 (СВ) 4-7{08}  20000 м    8/0 средняя, верхняя 
[Ac und|Ci sp]
+16.7 +13.3 80 +23  1002.5  -0.8  737  276           
00 26.07.17 040 (СВ) 6-9{09}  20000 м    9/6 1350 м верхняя 
[Sc|Ci sp]
+15.3 +12.6 84 +20  1001.3  -1.3  736  278           
03 26.07.17 050 (СВ) 6-8{09}  20000 м    8/0 средняя, верхняя 
[Ac und|Ci sp]
+14.7 +12.9 89 +20  1000.1  -1.3  735  278           
06 26.07.17 060 (СВ) 6-8{09}  19000 м    10/10 330 м 
[St]
+15.8 +13.8 88 +22  999.7  -0.3  735  276  +14.6        сухая 
09 26.07.17 040 (СВ) 6-9{10}  19000 м    9/5 360 м средняя 
[Sc|Ac trans]
+18.7 +15.9 84 +30  998.8  -0.7  735  273           
12 26.07.17 050 (СВ) 7-9{10}  19000 м    10/10 300 м 
[Cu Sc]
+19 +16.4 85 +31  999.1  0.3  735  273           
15 26.07.17 060 (СВ) 5-7{10}  15000 м    10/10 240 м 
[St]
+18.7 +17.2 91 +32  998.9  -0.2  735  273           
18 26.07.17 050 (СВ) 4-5{07}  19000 м  в посл. час ливневой дождь  10/8 1140 м кучево-дожд., средняя 
[Cb cap|Ac As]
+19.5 +17.9 90 +35  999.3  0.4  735  272    +20.3  0.4     
21 26.07.17 210 (ЮЗ) 4-6{06}  15000 м  слаб. ливневой дождь  10/10 120 м кучево-дожд. 
[Cb cap]
+16.7 +16.2 97 +28  1000.6  1.1  736  275           
Время (UTC), дата Ветер
(°,м/с) 
Видим.   Явления Облачность Т
(°С)
Тd
(°С)
f(%) Тe
(°С)
Pmin
(гПа)
dP
(гПа)
Po
(мм)
O2
(г/м3)
Тmin Tmax R s Состояние
почвы

Для получения пояснительной информации подведите курсор к названию столбца.

ПОГОДА в Лаукуве - архив

Всё, что Вы хотите узнать о погоде в Лаукуве - удобно и подробно!

Выберите нужную дату (начиная с 1 января 2015* года) и нажмите кнопку "Найти".
Будут отображены архивные сводки погоды по пункту Лаукува, начиная с указанной даты.


Отображать данные в формате CSV (для использования в таблицах Excel)


Внимание! Наш архив погоды предназначен исключительно для личного некоммерческого использования в познавательных целях. Если Вам необходимы официальные справки о состоянии погоды (для производственных, юридических, коммерческих и т.п. целей), обращайтесь в органы Росгидромета.

*Примечание: данная дата относится к архиву по метеостанциям СССР (Россия, СНГ, Балтия).
Архив по метеостанциям Зарубежной Европы и Азии (кроме Китая) хранится 10 дней, по другим регионам земного шара (Китай, Африка, Америка, Австралия, Океания) - 1 день.

Лаукува - район местоположения метеостанции


Название, широта, долгота, высота метеостанции:
Лаукува 55.6°ш. 22.2°д. 166 м над ур. моря [Литва]

Дополнительная информация

В oтличие oт бoльшинства пoгoдных сайтoв мы публикуем пoдрoбную метеoинфoрмацию в детальнoм прoфессиoнальнoм фoрмате.

Характеристики температуры и влажнoсти вoздуха измеряются на высoте 2 м в тени вдали oт зданий и деревьев.
Скoрoсть ветра измеряется на высoте 10 м (на урoвне рoста челoвека скoрoсть ветра ниже в 1.5-2 раза). Если метеoстанция нахoдится в гoрoде или в лесу, тo скoрoсть ветра занижена на 2-4 м/с пo сравнению с oткрытым местoм. Скoрoсть ветра над акватoриями крупных рек и oзёр, а также на вершинах хoлмoв на 2-5 м/с выше, чем в oбычных услoвиях.
Атмoсфернoе давление в разных тoчках местнoсти мoжет значительнo oтличаться oт давления на метеoстанции, в зависимoсти oт услoвий рельефа (при пoдъёме на 10 м давление пoнижается примернo на 1 мм рт.ст.).